Regional Weather Roundup
Issued by NWS Mobile, AL

Home | Current Version | Previous Version | Text Only | Print | Product List | Glossary On
Versions: 1 2 3 4 5 6 7 8 9 10 11 12 13 14 15 16 17 18 19 20 21 22 23 24 25 26 27 28 29 30 31 32 33 34 35 36 37 38 39 40 41 42 43 44 45 46 47 48 49 50
000
ASUS44 KMOB 210710
RWRMOB
REGIONAL WEATHER ROUNDUP
NATIONAL WEATHER SERVICE MOBILE AL
200 AM CDT TUE OCT 21 2014

NOTE: "FAIR" INDICATES FEW OR NO CLOUDS BELOW 12,000 FEET WITH NO
      SIGNIFICANT WEATHER AND/OR OBSTRUCTIONS TO VISIBILITY.

  * THESE STATIONS ARE PART OF THE UNIVERSITY OF SOUTH ALABAMA
    MESONET AND ARE NOT UNDER NWS OR FAA QUALITY CONTROL.

ALZ061>064-210800-
COASTAL ALABAMA

CITY           SKY/WX    TMP DP  RH WIND       PRES   REMARKS
MOBILE REG APT CLEAR     53  52  96 N3        30.02S
BROOKLEY FIELD CLEAR     55  53  93 NW6       30.02F
USA CAMPUS*      N/A     54  50  87 CALM      30.03R
DOG RIVER*     NOT AVBL


CITY           SKY/WX    TMP DP  RH WIND       PRES   REMARKS
MOUNT VERNON*    N/A     46  45  93 CALM      30.03R
SARALAND*      NOT AVBL
BAY MINETTE*   NOT AVBL
LOXLEY*          N/A     52  50  93 CALM      30.02S
ROBERTSDALE*     N/A     52  52 100 CALM      30.00F
FAIRHOPE*        N/A     52  50  93 CALM      30.00S
ELBERTA*         N/A     52  52 100 CALM      30.00S
FOLEY*           N/A     55  50  82 CALM      29.98S
GRAND BAY*       N/A     52  50  93 CALM      29.99F
DAUPHIN ISLND* NOT AVBL
BON SCOUR NWR* NOT AVBL
GULF SHORES    CLEAR     52  51  97 CALM      30.00S

$$

ALZ051>060-210800-
INTERIOR SOUTHWEST AND SOUTH CENTRAL ALABAMA

CITY           SKY/WX    TMP DP  RH WIND       PRES   REMARKS
GREENVILLE     CLEAR     51  47  86 CALM      30.01S
EVERGREEN      CLEAR     50  48  93 CALM      30.02S
CASTLEBERRY*   NOT AVBL
ATMORE*          N/A     52  52 100 CALM      30.02S
DIXIE*           N/A     54  52  94 CALM      29.98F
ANDALUSIA/OPP  CLEAR     59  50  72 CALM      30.01S
ANDALUSIA*       N/A     59  52  77 VRB5      30.00S
FLORALA APT    CLEAR     59  51  75 VRB5      30.02S
FLORALA*         N/A     55  50  82 CALM      29.98S

$$

FLZ001>006-210800-
WESTERN FLORIDA PANHANDLE

CITY           SKY/WX    TMP DP  RH WIND       PRES   REMARKS
PENSACOLA      CLEAR     59  53  80 N6        30.00S
NAS PENSACOLA  CLEAR     54  53  97 CALM      30.00S
MILTON         CLEAR     53  50  89 N5        30.01S
WHTNG S FIELD  CLEAR     52  49  89 CALM      30.00S


CITY           SKY/WX    TMP DP  RH WIND       PRES   REMARKS
WALNUT HILL*   NOT AVBL
JAY*             N/A     57  54  88 N3        30.01S
DUKE FIELD     CLEAR     53  51  94 CALM      30.00S
CRESTVIEW      CLEAR     49  49 100 CALM      30.01S
VALPARAISO     CLEAR     58  52  79 N2        30.00R
DESTIN         CLEAR     65  55  70 N8        29.99S

$$

MSZ076-079-210800-
INTERIOR SOUTHEAST MISSISSIPPI

CITY           SKY/WX    TMP DP  RH WIND       PRES   REMARKS
LEAKESVILLE*   NOT AVBL
AGRICOLA*      NOT AVBL

$$

MARINE OBSERVATIONS

STATION/POSITION TIME  TEMP    WIND        PRES    WAVE
                       AIR SEA DIR/SP/G            HT/PER
                 (UTC) (F)     (DEG/KT/KT) (MB)    (FT/S)
PASCAGOULA       0700   63     360/  4/  6 1015.9S
PETIT BOIS ISLND 0700   70      40/  8/ 10 1016.1S
GRAND BAY        0600   60      10/  3     1017.0S
CEDAR POINT      0500   66      10/  5     1016.6R
E DAUPHIN ISLAND 0700   70      40/  8/  9 1016.1R
MIDDLE BAY LIGHT 0600   69      50/  6     1015.2F
USCG MOBILE BAY  0700   61 74  350/  3/  5 1014.9F
STATE DOCKS      0700   62 76              1016.0F
MEAHER PARK      0600   62      20/  2     1016.6R
WEEKS BAY        0600   55                   N/A
FORT MORGAN      0700   69      50/  9/ 11 1015.4S
12 S ORANGE BCH  0700   73 78   30/ 10/ 12 1015.3F   1/ 3
PENSACOLA BAY    0700   65 76   20/  3/  5 1015.9F
64 S DAUPHIN ISL 0646   74 79   30/ 10/ 12 1016.0F   1/ 5
67 S FORT MORGAN 0600   74                 1015.2S

$$

SELECTED LOCATIONS ACROSS THE REGION

CITY           SKY/WX    TMP DP  RH WIND       PRES   REMARKS
NEW ORLEANS    PTCLDY    63  55  75 CALM      30.00F
GULFPORT       CLEAR     55  52  89 CALM      30.01S
PASCAGOULA AP  CLEAR     49  48  97 CALM      30.01S
PASCAGOULA*      N/A     54  54 100 CALM      30.01S
HATTIESBURG    CLEAR     53  51  93 CALM      30.04R
LAUREL         CLEAR     52  48  87 N3        30.04S
MERIDIAN       CLEAR     50  48  93 CALM      30.04S
JACKSON        CLEAR     50  49  96 CALM      30.04F
MONTGOMERY     CLEAR     51  49  92 CALM      30.01F
TROY           CLEAR     49  48  97 CALM      30.02S
KINSTON*       NOT AVBL
GENEVA*          N/A     52  48  87 CALM      30.02S
ASHFORD*         N/A     59  52  77 VRB5      30.00S
DOTHAN         CLEAR     54  52  93 CALM      30.03S
PANAMA CITY    CLEAR     57  53  86 CALM      29.98S

$$



USA.gov is the U.S. government's official web portal to all federal, state and local government web resources and services.